TimeEET,TemperatureF,Dew PointF,Humidity,Sea Level PressureIn,VisibilityMPH,Wind Direction,Wind SpeedMPH,Gust SpeedMPH,PrecipitationIn,Events,Conditions,WindDirDegrees,DateUTC
12:20 AM,48.2,35.6,62,29.98,2.5,Variable,1.2,-,N/A,Rain,Light Rain Showers,0,2013-02-21 22:20:00
12:50 AM,46.4,37.4,71,29.98,3.7,West,6.9,-,N/A,Rain,Light Rain Showers,270,2013-02-21 22:50:00
1:20 AM,46.4,37.4,71,29.98,3.7,West,5.8,-,N/A,Rain,Light Rain Showers,260,2013-02-21 23:20:00
1:50 AM,46.4,39.2,76,29.98,3.1,West,3.5,-,N/A,Rain,Light Rain Showers,260,2013-02-21 23:50:00
2:00 AM,46,39,70,30.00,3,West,3.5,,,Rain,Light Rain Showers,260,2013-02-22 00:00:00
2:20 AM,46.4,41.0,81,29.95,3.1,NNE,4.6,-,N/A,Rain,Light Rain Showers,30,2013-02-22 00:20:00
2:50 AM,46.4,39.2,76,29.92,3.1,NE,5.8,-,N/A,Rain,Light Rain Showers,40,2013-02-22 00:50:00
3:20 AM,44.6,39.2,81,29.92,3.7,NNW,4.6,-,N/A,Rain,Light Rain Showers,340,2013-02-22 01:20:00
3:50 AM,44.6,41.0,87,29.92,3.7,NNE,4.6,-,N/A,Rain,Light Rain Showers,20,2013-02-22 01:50:00
4:20 AM,46.4,39.2,76,29.89,3.7,NNE,6.9,-,N/A,Rain,Light Rain Showers,20,2013-02-22 02:20:00
4:50 AM,46.4,39.2,76,29.89,4.3,NNE,8.1,-,N/A,,Mostly Cloudy,20,2013-02-22 02:50:00
5:20 AM,46.4,37.4,71,29.89,4.3,NNE,9.2,-,N/A,,Mostly Cloudy,20,2013-02-22 03:20:00
5:50 AM,46.4,37.4,71,29.89,6.2,NNE,6.9,-,N/A,Rain,Light Rain Showers,20,2013-02-22 03:50:00
6:20 AM,46.4,39.2,76,29.86,6.2,NE,9.2,-,N/A,Rain,Light Rain Showers,50,2013-02-22 04:20:00
6:50 AM,46.4,39.2,76,29.86,6.2,ENE,8.1,-,N/A,Rain,Light Rain Showers,60,2013-02-22 04:50:00
7:20 AM,46.4,37.4,71,29.83,6.2,NE,10.4,-,N/A,Rain,Light Rain Showers,50,2013-02-22 05:20:00
7:50 AM,46.4,37.4,71,29.83,6.2,NE,10.4,-,N/A,Rain,Light Rain Showers,50,2013-02-22 05:50:00
8:00 AM,47,38,61,29.85,6,NE,10.4,,,Rain,Light Rain Showers,50,2013-02-22 06:00:00
8:20 AM,48.2,37.4,66,29.83,6.2,ENE,11.5,-,N/A,Rain,Light Rain Showers,60,2013-02-22 06:20:00
8:50 AM,48.2,37.4,66,29.83,3.7,ENE,10.4,-,N/A,Rain,Light Rain Showers,60,2013-02-22 06:50:00
9:20 AM,46.4,39.2,76,29.83,3.7,NE,9.2,-,N/A,Rain,Light Rain Showers,50,2013-02-22 07:20:00
9:50 AM,48.2,39.2,71,29.80,3.7,NE,9.2,-,N/A,Rain,Light Rain Showers,40,2013-02-22 07:50:00
10:20 AM,48.2,41.0,76,29.80,3.7,NE,8.1,-,N/A,Rain,Light Rain Showers,40,2013-02-22 08:20:00
10:50 AM,50.0,41.0,71,29.77,3.7,NE,8.1,-,N/A,Rain,Light Rain Showers,40,2013-02-22 08:50:00
11:20 AM,50.0,41.0,71,29.77,3.7,NE,6.9,-,N/A,Rain,Light Rain Showers,50,2013-02-22 09:20:00
11:50 AM,50.0,41.0,71,29.77,3.7,NNE,4.6,-,N/A,,Mostly Cloudy,30,2013-02-22 09:50:00
12:20 PM,50.0,42.8,76,29.77,6.2,Variable,2.3,-,N/A,,Mostly Cloudy,0,2013-02-22 10:20:00
12:50 PM,51.8,41.0,67,29.77,6.2,Variable,2.3,-,N/A,,Mostly Cloudy,0,2013-02-22 10:50:00
1:20 PM,51.8,41.0,67,29.74,6.2,ESE,4.6,-,N/A,,Mostly Cloudy,110,2013-02-22 11:20:00
1:50 PM,53.6,41.0,62,29.74,6.2,East,4.6,-,N/A,,Mostly Cloudy,90,2013-02-22 11:50:00
2:00 PM,53,42,56,29.75,6,East,4.6,,,,Partly Cloudy,90,2013-02-22 12:00:00
2:20 PM,53.6,41.0,62,29.71,6.2,East,5.8,-,N/A,,Mostly Cloudy,90,2013-02-22 12:20:00
2:50 PM,53.6,41.0,62,29.71,6.2,East,5.8,-,N/A,,Mostly Cloudy,90,2013-02-22 12:50:00
3:20 PM,51.8,41.0,67,29.71,6.2,East,6.9,-,N/A,,Mostly Cloudy,90,2013-02-22 13:20:00
3:50 PM,51.8,41.0,67,29.71,6.2,East,4.6,-,N/A,,Mostly Cloudy,90,2013-02-22 13:50:00
4:20 PM,51.8,42.8,71,29.71,6.2,East,3.5,-,N/A,,Mostly Cloudy,80,2013-02-22 14:20:00
4:50 PM,51.8,41.0,67,29.71,6.2,ENE,4.6,-,N/A,,Mostly Cloudy,70,2013-02-22 14:50:00
5:20 PM,51.8,41.0,67,29.71,4.3,ENE,4.6,-,N/A,,Mostly Cloudy,60,2013-02-22 15:20:00
5:50 PM,53.6,41.0,62,29.71,3.7,ENE,5.8,-,N/A,,Mostly Cloudy,60,2013-02-22 15:50:00
6:20 PM,51.8,41.0,67,29.71,6.2,East,3.5,-,N/A,,Mostly Cloudy,90,2013-02-22 16:20:00
6:50 PM,53.6,41.0,62,29.71,6.2,ENE,6.9,-,N/A,,Mostly Cloudy,70,2013-02-22 16:50:00
7:20 PM,53.6,41.0,62,29.71,6.2,ENE,5.8,-,N/A,,Mostly Cloudy,70,2013-02-22 17:20:00
7:50 PM,53.6,41.0,62,29.71,6.2,East,3.5,-,N/A,Rain,Light Rain Showers,80,2013-02-22 17:50:00
8:00 PM,53,41,54,29.73,6,East,3.5,,,Rain,Light Rain Showers,80,2013-02-22 18:00:00
8:20 PM,50.0,42.8,76,29.71,6.2,North,4.6,-,N/A,Rain,Light Rain Showers,350,2013-02-22 18:20:00
8:50 PM,51.8,44.6,76,29.71,2.5,East,3.5,-,N/A,Rain,Light Rain Showers,80,2013-02-22 18:50:00
9:20 PM,51.8,44.6,76,29.71,2.5,ENE,3.5,-,N/A,Rain,Light Rain Showers,70,2013-02-22 19:20:00
9:50 PM,51.8,44.6,76,29.71,2.5,East,4.6,-,N/A,Rain,Light Rain Showers,80,2013-02-22 19:50:00
10:20 PM,50.0,44.6,82,29.71,2.5,Variable,2.3,-,N/A,Rain,Light Rain Showers,0,2013-02-22 20:20:00
10:50 PM,50.0,44.6,82,29.71,3.7,East,5.8,-,N/A,,Mostly Cloudy,100,2013-02-22 20:50:00
11:20 PM,50.0,46.4,87,29.71,4.3,ENE,3.5,-,N/A,,Mostly Cloudy,70,2013-02-22 21:20:00
11:50 PM,50.0,48.2,94,29.71,4.3,NE,5.8,-,N/A,,Mostly Cloudy,50,2013-02-22 21:50:00